Location: Moscow
(55.7500°N, 37.5830°E)
Time: 15:57:47
(UTC+03:00)

Transit 2A - Pass Details

Date: 09 December 2021
Orbit: 591 x 967 km, 66.7° (Epoch: 17 January)

Event Time Altitude Azimuth Distance (km) Brightness Sun altitude
Rises 09:13:37 0° 313° (NW) 3,666 8.8 1.8°
Reaches altitude 10° 09:16:52 10° 298° (WNW) 2,713 8.3 2.2°
Maximum altitude 09:21:17 20° 254° (WSW) 2,049 8.0 2.6°
Drops below altitude 10° 09:25:36 10° 210° (SSW) 2,630 9.1 3.0°
Sets 09:28:42 0° 194° (SSW) 3,519 10.0 3.2°
